Theta_e
311 311 311 311 311 310 310 310 310 311 311 312 313 313 314 315 314 313 316 316 316 314 314 316 315 317 319 321 321 321 322 324 323 321 322 318 317 316 313 317 314 315 315 311 311
309 309 309 309 309 309 309 309 310 310 310 310 312 312 313 314 318 316 315 314 314 314 315 317 319 318 322 321 320 321 324 323 321 320 319 319 317 318 315 316 316 315 314 307 308
310 310 310 310 310 309 309 309 308 309 309 309 311 313 313 313 318 319 316 313 314 314 314 316 317 320 321 321 322 322 322 320 320 318 317 318 317 317 316 318 318 318 317 310 308
310 310 310 310 310 310 309 309 308 308 308 308 310 313 313 318 320 315 313 312 313 313 314 315 318 320 322 322 320 321 321 319 319 317 316 317 317 316 316 318 316 317 317 313 309
310 310 310 310 310 310 310 309 308 308 307 307 309 313 315 318 318 314 313 312 312 312 315 317 319 322 322 321 319 320 320 318 317 317 316 316 316 317 318 318 317 315 311 313 310
311 310 310 310 310 310 309 308 308 307 307 307 309 313 317 316 314 313 313 312 312 313 314 315 318 319 319 318 320 319 318 318 318 317 317 316 317 315 318 317 317 317 314 312 312
313 312 310 310 310 309 309 308 307 307 307 308 312 312 316 315 313 312 311 311 311 312 315 313 315 318 319 320 317 316 318 319 319 317 316 315 316 317 317 316 315 315 314 313 312
313 312 311 310 309 309 308 307 306 306 307 310 312 315 316 314 313 311 310 310 310 310 312 310 312 317 317 315 316 317 318 319 320 317 316 315 316 317 317 317 315 315 316 314 313
312 311 310 309 308 308 308 307 305 306 309 313 315 317 315 313 314 312 311 312 310 310 309 309 314 317 315 318 319 320 320 320 320 317 317 316 316 316 316 316 315 315 315 316 314
311 310 310 309 307 306 307 306 305 311 314 313 313 317 314 315 314 311 308 310 312 313 314 314 316 317 318 318 319 318 318 319 319 318 316 316 316 316 316 316 316 316 315 315 315
311 311 310 310 309 306 306 306 314 315 313 316 317 317 312 313 311 311 309 310 312 313 316 316 317 317 318 318 319 318 318 317 317 318 316 317 316 317 317 316 316 316 316 315 315
312 311 311 311 311 308 308 310 315 311 310 311 312 312 311 314 314 313 308 313 313 315 316 316 315 316 316 316 316 317 317 317 318 319 314 316 316 316 316 316 316 315 315 314 315
313 312 311 311 311 312 310 312 309 310 312 311 313 311 312 310 312 314 310 313 314 315 315 316 316 314 315 317 316 316 317 318 318 319 315 315 316 316 316 314 314 313 313 313 313
314 313 312 311 313 313 312 307 308 308 312 313 310 312 311 310 310 305 307 311 313 314 314 315 315 315 315 315 315 317 317 318 318 318 319 314 318 317 316 315 314 312 314 315 312
315 313 312 312 313 313 309 307 308 307 317 312 309 308 310 311 309 307 303 307 312 312 313 314 315 313 315 315 316 317 312 315 316 317 319 317 317 316 312 313 313 313 315 316 313
317 315 313 313 313 312 310 307 310 312 316 310 310 311 312 311 309 306 307 306 307 311 311 312 309 312 315 309 312 310 312 312 312 314 319 316 318 317 316 314 314 314 314 315 312
319 316 313 313 314 311 309 311 312 312 310 314 313 312 312 314 312 309 309 309 312 313 314 315 313 311 309 312 309 311 315 318 323 323 321 317 316 317 316 314 314 314 314 315 311
321 318 314 313 312 310 308 313 314 313 316 310 310 313 314 313 313 312 312 313 311 312 314 315 316 312 309 313 316 312 316 320 327 320 320 314 317 316 316 315 313 313 313 312 310
323 318 315 313 312 310 312 315 319 318 314 314 312 312 313 313 313 313 313 314 314 312 314 314 314 308 310 309 314 313 314 315 321 321 321 317 317 318 318 314 313 312 311 311 309
318 317 316 313 313 309 311 316 322 317 314 311 314 313 313 313 312 312 313 314 313 313 313 313 315 313 304 305 307 310 311 316 316 324 321 316 317 317 317 315 314 313 312 313 310
317 316 315 313 309 310 311 312 319 318 314 310 311 312 313 314 314 313 312 313 313 313 312 312 315 312 306 308 311 308 310 310 310 317 319 319 317 313 315 314 313 314 313 314 312
316 319 311 312 312 309 311 314 315 317 314 310 311 310 312 312 313 312 313 313 312 312 311 312 314 315 314 312 309 311 311 312 314 315 314 315 316 313 314 314 312 312 313 313 313
317 315 309 311 317 313 313 315 316 318 317 312 311 309 310 310 309 310 311 312 312 312 313 311 314 317 314 310 304 308 310 311 313 313 315 317 316 313 313 313 313 311 312 311 310
316 316 309 309 313 316 313 316 317 316 316 314 310 312 312 313 312 313 314 313 310 311 310 312 313 313 314 314 312 312 310 310 310 313 313 314 313 313 313 313 313 313 312 312 311
313 316 309 312 311 313 314 315 317 317 316 314 314 314 314 317 316 317 315 313 311 308 310 310 313 313 314 314 313 312 312 311 310 310 312 312 312 312 312 312 312 312 311 310 310
308 314 308 313 315 311 311 314 316 317 317 317 316 317 315 316 317 319 317 315 314 312 310 310 313 313 314 313 312 312 311 312 312 312 312 312 310 310 310 311 311 311 310 310 309
302 301 301 306 309 311 314 314 314 315 315 316 317 317 316 315 313 314 314 314 315 314 312 311 313 314 315 314 314 315 314 313 312 313 313 314 313 313 313 312 312 312 311 310 310
Wind_Speed
11 13 13 14 14 15 15 15 15 15 14 15 11 7 9 7 6 5 8 5 6 4 3 3 4 5 5 3 3 2 5 7 6 5 2 3 8 5 4 7 4 8 8 5 14
12 13 13 14 15 16 16 15 15 15 15 16 13 9 7 7 8 14 9 9 7 4 4 8 5 8 5 3 3 5 6 7 2 4 5 4 9 8 5 12 14 13 12 6 18
12 12 13 14 15 16 17 17 16 15 16 16 15 9 5 4 7 5 17 11 9 6 5 4 4 8 7 4 6 4 7 5 6 7 6 8 9 9 9 15 15 16 15 16 19
14 15 15 15 16 16 16 17 17 17 17 18 16 9 4 2 5 1 13 10 7 6 5 4 5 4 6 7 4 6 11 8 2 3 4 9 6 7 17 19 2 4 8 16 19
14 15 16 17 18 18 18 19 19 18 17 18 16 8 2 7 8 4 11 8 6 4 6 6 8 6 8 3 4 9 10 7 9 6 9 9 14 12 18 17 16 10 6 14 18
16 17 17 17 18 18 19 19 20 20 19 18 12 5 5 11 3 6 10 8 4 6 4 4 4 3 7 6 7 4 8 12 9 13 10 9 15 4 12 10 17 18 17 16 19
18 19 19 19 19 19 19 19 21 21 21 17 8 5 7 11 3 6 9 8 7 4 4 2 2 4 1 6 2 5 9 14 16 12 7 7 10 18 20 11 12 14 17 18 20
18 20 21 21 20 21 21 21 21 23 22 11 4 4 7 5 4 5 6 4 4 4 2 3 1 2 4 1 5 6 7 11 3 11 5 8 18 12 10 10 15 18 18 18 20
21 20 20 21 21 22 24 22 23 22 14 3 3 6 7 3 4 7 6 4 5 4 4 3 2 4 3 7 11 10 12 15 16 15 4 13 15 11 5 10 19 19 20 19 20
17 18 18 19 18 21 24 22 18 7 1 2 3 4 6 3 5 5 4 9 2 6 3 5 5 8 8 10 12 17 16 15 15 9 13 16 22 22 22 21 23 24 23 21 20
16 17 19 21 19 18 20 6 6 4 6 6 2 5 2 3 6 6 6 8 4 5 7 6 8 16 18 18 22 22 20 22 23 10 9 19 23 23 22 22 24 23 23 21 19
16 16 19 22 24 16 6 3 2 1 9 11 13 9 7 4 4 9 10 10 8 14 14 6 16 22 16 9 15 18 20 25 22 10 5 16 23 22 22 26 24 23 22 18 13
13 16 18 19 25 7 5 1 2 1 7 7 7 7 4 11 9 9 16 7 12 16 19 22 22 4 4 13 14 18 21 22 21 15 13 16 21 18 13 16 17 20 18 15 13
16 13 14 19 9 10 4 3 3 2 6 10 7 3 4 3 6 2 6 5 8 13 18 18 19 17 15 19 16 19 9 17 18 11 15 2 17 15 16 19 12 18 17 14 11
18 13 13 9 10 6 7 6 3 2 10 5 5 3 2 6 4 2 1 3 15 9 6 12 6 9 14 13 10 6 2 4 8 13 17 17 14 15 6 10 13 17 18 11 9
20 16 13 7 4 6 7 3 5 6 13 5 6 6 5 5 1 2 3 3 3 8 12 18 2 4 5 2 3 7 2 3 4 5 12 21 18 10 8 7 9 13 14 8 9
24 21 20 8 4 3 4 3 6 11 3 8 9 7 9 8 8 9 7 9 9 6 11 12 22 4 4 5 4 8 6 6 8 6 14 13 12 19 12 14 16 21 18 7 10
30 28 28 18 13 5 4 5 16 10 22 3 3 7 10 11 9 11 8 10 16 14 6 9 12 16 15 15 9 13 10 6 10 14 21 6 14 12 11 13 11 12 6 5 11
33 30 20 29 20 12 5 10 26 21 15 12 2 10 13 10 7 10 12 17 10 21 14 10 15 4 11 4 9 9 8 6 9 5 8 17 29 26 11 11 11 7 5 11 11
19 11 19 27 29 12 5 23 24 13 10 6 26 15 22 22 11 11 14 11 11 16 18 11 16 6 6 3 6 6 2 5 5 6 15 26 25 19 13 14 8 7 10 12 10
13 2 11 31 23 3 5 15 17 19 17 9 20 26 25 22 22 23 16 15 12 9 14 8 7 7 5 11 15 7 7 7 4 10 13 16 16 5 2 7 3 7 9 8 8
4 4 23 40 7 4 9 11 10 23 14 8 10 22 25 24 26 25 27 22 10 7 10 10 3 9 22 12 9 13 18 19 11 17 9 15 25 8 8 7 5 6 6 8 6
3 1 22 21 9 11 11 22 14 20 20 6 11 10 9 17 20 23 23 19 17 11 9 8 5 7 13 8 6 8 15 17 19 14 24 18 24 18 27 18 18 9 10 9 10
3 4 3 3 6 13 20 18 21 18 20 17 7 11 14 18 19 12 19 10 9 6 14 4 6 12 19 25 8 13 20 19 21 18 24 25 28 30 32 22 28 24 17 14 14
3 7 8 6 11 16 10 8 23 17 18 9 6 22 20 13 18 18 23 27 19 3 9 5 16 20 23 28 31 26 22 15 25 26 22 27 24 23 28 33 28 24 18 18 21
4 3 2 9 18 25 27 23 29 26 25 19 23 24 24 24 23 23 20 18 20 2 10 11 14 18 24 27 30 34 30 28 32 27 29 27 28 31 35 36 34 34 32 24 27
6 5 2 2 4 11 20 28 30 28 30 30 30 25 25 26 31 33 25 20 10 9 10 8 6 9 19 25 28 23 35 37 34 38 35 30 38 35 36 35 34 26 27 23 24
Wind_Direction
7 4 3 5 7 11 14 14 15 11 9 6 351 322 269 283 303 247 242 215 204 219 216 184 216 214 210 207 230 256 255 268 282 266 354 142 215 170 360 248 205 199 263 73 151
354 354 354 354 355 358 360 2 3 1 358 355 351 333 299 275 277 256 242 210 209 210 185 202 206 190 217 221 213 244 261 294 338 282 271 210 236 236 221 218 231 236 224 169 167
340 341 340 343 346 348 348 350 351 350 349 347 343 331 307 280 275 241 210 201 201 201 207 219 237 204 237 233 193 190 252 349 270 258 268 261 244 220 231 251 238 240 225 188 191
330 331 330 329 331 335 339 339 340 341 341 340 336 324 300 217 266 119 183 191 197 186 181 196 204 217 248 225 196 258 245 253 285 228 245 245 272 239 230 241 109 311 278 174 199
318 321 323 326 325 327 330 331 331 332 333 334 329 313 269 237 256 220 191 196 185 174 231 232 240 264 258 249 227 245 276 250 247 225 238 256 248 255 261 253 257 224 226 203 208
320 317 317 314 316 319 321 322 325 324 325 325 318 281 243 255 266 205 195 195 190 211 224 233 294 288 292 261 233 355 276 266 257 249 243 233 256 252 256 250 244 240 227 226 218
319 318 313 312 311 312 313 315 317 316 317 319 299 213 243 257 227 200 194 199 203 214 234 221 235 238 13 257 271 282 281 273 248 242 243 206 250 234 252 234 232 233 237 231 226
312 312 310 309 310 309 308 312 314 311 311 306 245 196 264 229 186 191 178 159 171 185 172 166 199 232 240 30 238 258 256 270 219 181 188 197 266 251 252 207 236 246 243 234 230
308 307 308 308 311 310 306 312 311 305 302 262 193 232 262 158 184 190 188 195 136 100 90 115 224 262 194 240 267 209 268 268 263 192 171 210 266 278 230 243 266 264 259 247 235
306 310 315 311 311 306 303 315 307 294 252 197 247 234 186 193 151 162 184 161 160 144 155 202 224 242 222 232 260 292 284 270 262 199 219 235 249 271 279 273 271 269 264 258 252
304 310 317 322 329 320 317 344 251 217 205 245 315 282 170 118 154 178 164 160 171 219 225 190 229 241 255 244 250 275 283 276 273 273 224 247 262 270 275 278 274 276 273 265 254
320 310 319 326 332 322 322 262 86 16 294 240 253 261 233 189 236 195 167 186 189 224 218 218 240 255 279 288 268 259 265 267 274 294 210 272 270 271 267 267 273 273 271 274 267
295 320 327 322 326 325 297 202 181 141 249 233 224 240 234 183 233 216 182 207 219 232 223 240 256 84 259 255 249 244 250 260 273 304 241 267 277 261 247 255 260 268 263 266 253
274 298 321 324 324 330 278 260 206 161 264 227 202 180 161 188 252 119 206 219 209 243 240 251 260 257 247 253 246 259 264 254 269 282 276 77 287 283 285 265 240 267 271 261 216
265 273 299 317 311 309 324 301 194 240 275 113 163 104 133 223 50 157 153 183 239 211 188 235 223 221 232 245 226 238 3 249 258 259 281 264 270 279 196 264 231 248 262 271 190
259 255 263 290 250 258 296 284 284 225 248 190 163 183 173 196 196 94 187 235 333 242 236 259 73 243 235 106 241 122 229 227 231 268 259 262 245 277 232 226 232 250 244 251 189
251 242 236 225 301 290 173 200 244 234 118 194 216 192 209 195 201 192 180 187 193 190 220 223 226 180 198 209 164 204 214 273 255 222 264 281 263 257 277 251 257 263 267 199 175
253 239 229 221 228 248 151 207 245 252 229 74 165 196 215 189 225 198 194 233 226 241 280 252 243 192 196 221 261 198 216 219 264 264 283 101 265 266 238 233 235 249 246 188 187
260 243 212 214 215 192 231 217 241 238 259 249 206 241 223 223 239 199 220 236 229 196 216 225 250 123 181 184 185 167 204 252 272 266 281 270 271 270 234 198 223 217 214 225 209
248 219 223 202 200 180 191 243 246 226 272 256 236 219 248 234 200 205 229 229 232 196 224 257 262 172 125 199 227 237 43 190 205 260 256 278 279 279 274 229 215 232 237 249 212
252 229 198 186 167 161 207 231 270 260 255 233 255 255 257 252 246 229 241 256 208 200 208 236 227 238 142 201 217 190 224 220 295 239 252 268 271 48 31 136 297 224 246 240 212
205 234 170 166 172 187 216 218 235 265 267 262 260 265 264 262 254 249 247 244 187 164 188 214 236 232 237 246 246 247 229 220 222 233 233 250 268 130 111 107 141 218 205 249 225
252 178 178 179 204 216 236 239 248 261 245 223 249 242 287 289 289 272 262 268 264 191 210 176 210 237 259 230 168 211 224 240 240 251 247 247 249 267 272 278 278 242 228 211 219
266 252 164 237 255 227 222 229 236 246 253 250 189 281 269 262 268 279 290 311 342 303 6 15 238 229 241 251 261 219 230 225 228 233 248 246 262 273 282 282 275 274 265 253 237
235 245 185 202 236 244 248 220 239 239 224 225 239 213 221 240 243 248 250 258 257 180 292 297 272 268 256 264 275 273 262 229 225 235 243 260 261 266 277 274 276 277 280 283 274
291 281 251 272 224 214 222 228 238 239 236 232 226 230 224 228 227 245 229 230 239 170 241 238 249 255 261 265 268 273 271 268 264 264 260 255 258 259 261 269 274 271 276 276 276
314 335 357 252 277 256 234 232 234 238 248 241 248 249 240 229 227 234 246 255 225 209 201 195 210 223 244 244 247 252 244 247 251 254 252 253 251 259 264 262 261 276 275 274 276